Kremmling, CO

12:08 AM MDT on April 30, 2017 (GMT -0600)
Kremmling

Weather History for K20V - July, 2014

Change the Weather History Date:

Saturday, July 5, 2014

  Actual Average Record
Temperature  
Mean Temperature 64 °F -  
Max Temperature 87 °F - 89 °F (2012)
Min Temperature 41 °F - 35 °F (2010)
Degree Days  
Heating Degree Days 1    
Month to date heating degree days  
Cooling Degree Days 0    
Month to date cooling degree days  
Growing Degree Days 14 (Base 50)    
Moisture  
Dew Point 37 °F    
Average Humidity 51    
Maximum Humidity 87    
Minimum Humidity 9    
Precipitation  
Precipitation 0.00 in - 0.20 in (2008)
Sea Level Pressure  
Sea Level Pressure 30.43 in    
Wind  
Wind Speed 2 mph (ESE)    
Max Wind Speed 12 mph    
Max Gust Speed 26 mph    
Visibility 10 miles    
Events Rain    
T = Trace of Precipitation, MM = Missing Value Source: NWS Daily Summary

Daily Weather History Graph

Daily Weather History Graph

Search for Another Location

Airport or City:

Trip Planner

Search our weather history database for the weather conditions in past years. The results will help you decide how hot, cold, wet, or windy it might be!

Date:

Astronomy

Jul. 05, 2014 Rise Set
Actual Time 5:42 AM MDT 8:37 PM MDT
Civil Twilight 5:09 AM MDT 9:10 PM MDT
Nautical Twilight 4:28 AM MDT 9:51 PM MDT
Astronomical Twilight 3:41 AM MDT 10:38 PM MDT
Moon 1:39 PM MDT (7/5) 12:31 AM MDT (7/5)
Length of Visible Light 16h 00m
Length of Day
14h 55m
First Quarter, 53% of the Moon is Illuminated
Jul 5
First Quarter
Jul 12
Full
Jul 18
Last Quarter
Jul 26
New
Aug 3
First Quarter

Hourly Weather History & Observations

Time (MDT) Temp. Windchill Dew Point Humidity Pressure Visibility Wind Dir Wind Speed Gust Speed Precip Events Conditions
12:17 AM 51.8 °F - 42.8 °F 71% 30.44 in 10.0 mi Calm Calm - N/A   Clear
12:37 AM 50.0 °F - 42.8 °F 76% 30.44 in 10.0 mi Calm Calm - N/A   Clear
12:57 AM 50.0 °F - 42.8 °F 76% 30.45 in 10.0 mi Calm Calm - N/A   Clear
1:17 AM 50.0 °F - 42.8 °F 76% 30.46 in 10.0 mi ENE 4.6 mph - N/A   Clear
1:36 AM 50.0 °F - 42.8 °F 76% 30.46 in 10.0 mi North 3.5 mph - N/A   Clear
1:57 AM 48.2 °F - 42.8 °F 82% 30.46 in 10.0 mi Calm Calm - N/A   Clear
2:17 AM 50.0 °F - 44.6 °F 82% 30.46 in 10.0 mi Calm Calm - N/A   Clear
2:37 AM 46.4 °F - 42.8 °F 87% 30.46 in 10.0 mi Calm Calm - N/A   Clear
2:57 AM 44.6 °F - 41.0 °F 87% 30.46 in 10.0 mi Calm Calm - N/A   Clear
3:17 AM 46.4 °F - 42.8 °F 87% 30.46 in 10.0 mi Calm Calm - N/A   Clear
3:37 AM 44.6 °F - 41.0 °F 87% 30.47 in 10.0 mi Calm Calm - N/A   Clear
3:57 AM 44.6 °F - 41.0 °F 87% 30.46 in 10.0 mi Calm Calm - N/A   Clear
4:17 AM 44.6 °F - 41.0 °F 87% 30.46 in 10.0 mi Calm Calm - N/A   Clear
4:37 AM 42.8 °F - 39.2 °F 87% 30.46 in 10.0 mi Calm Calm - N/A   Clear
4:57 AM 41.0 °F 39.0 °F 37.4 °F 87% 30.46 in 10.0 mi ESE 3.5 mph - N/A   Clear
5:17 AM 41.0 °F - 37.4 °F 87% 30.47 in 10.0 mi Calm Calm - N/A   Clear
5:37 AM 42.8 °F - 39.2 °F 87% 30.47 in 10.0 mi Calm Calm - N/A   Clear
5:57 AM 41.0 °F - 37.4 °F 87% 30.47 in 10.0 mi Calm Calm - N/A   Clear
6:17 AM 41.0 °F - 37.4 °F 87% 30.48 in 10.0 mi Calm Calm - N/A   Clear
6:37 AM 41.0 °F - 37.4 °F 87% 30.48 in 10.0 mi Calm Calm - N/A   Clear
6:57 AM 42.8 °F - 39.2 °F 87% 30.48 in 10.0 mi Calm Calm - N/A   Clear
7:17 AM 44.6 °F - 41.0 °F 87% 30.48 in 10.0 mi Calm Calm - N/A   Clear
7:37 AM 46.4 °F - 42.8 °F 87% 30.48 in 10.0 mi Calm Calm - N/A   Clear
7:57 AM 50.0 °F - 42.8 °F 76% 30.48 in 10.0 mi Calm Calm - N/A   Clear
8:17 AM 50.0 °F - 42.8 °F 76% 30.49 in 10.0 mi Calm Calm - N/A   Clear
8:37 AM 51.8 °F - 42.8 °F 71% 30.49 in 10.0 mi Calm Calm - N/A   Clear
8:57 AM 51.8 °F - 41.0 °F 67% 30.50 in 10.0 mi Calm Calm - N/A   Clear
9:16 AM 53.6 °F - 42.8 °F 67% 30.50 in 10.0 mi Calm Calm - N/A   Clear
9:37 AM 53.6 °F - 42.8 °F 67% 30.49 in 10.0 mi Calm Calm - N/A   Clear
9:56 AM 55.4 °F - 42.8 °F 63% 30.49 in 10.0 mi Calm Calm - N/A   Clear
10:17 AM 59.0 °F - 42.8 °F 55% 30.49 in 10.0 mi Calm Calm - N/A   Clear
10:36 AM 60.8 °F - 42.8 °F 52% 30.48 in 10.0 mi NNW 3.5 mph - N/A   Clear
10:57 AM 62.6 °F - 42.8 °F 48% 30.48 in 10.0 mi Calm Calm - N/A   Clear
11:17 AM 66.2 °F - 44.6 °F 46% 30.47 in 10.0 mi Calm Calm - N/A   Clear
11:37 AM 69.8 °F - 42.8 °F 38% 30.46 in 10.0 mi Calm Calm - N/A   Clear
11:57 AM 69.8 °F - 42.8 °F 38% 30.45 in 10.0 mi Calm Calm - N/A   Clear
12:17 PM 73.4 °F - 42.8 °F 33% 30.44 in 10.0 mi WSW 3.5 mph - N/A   Clear
12:36 PM 73.4 °F - 37.4 °F 27% 30.44 in 10.0 mi Calm Calm - N/A   Clear
12:57 PM 77.0 °F - 37.4 °F 24% 30.43 in 10.0 mi Calm Calm - N/A   Clear
1:17 PM 78.8 °F - 35.6 °F 21% 30.41 in 10.0 mi Calm Calm - N/A   Clear
1:37 PM 80.6 °F - 35.6 °F 20% 30.41 in 10.0 mi WSW 8.1 mph - N/A   Clear
2:17 PM 82.4 °F - 32.0 °F 16% 30.38 in 10.0 mi SSW 8.1 mph - N/A   Clear
2:37 PM 82.4 °F - 19.4 °F 10% 30.38 in 10.0 mi South 8.1 mph - N/A   Clear
2:57 PM 86.0 °F - 23.0 °F 10% 30.37 in 10.0 mi SSW 6.9 mph - N/A   Clear
3:17 PM 87.8 °F - 21.2 °F 9% 30.36 in 10.0 mi SSW 9.2 mph - N/A   Clear
3:37 PM 84.2 °F - 21.2 °F 10% 30.35 in 10.0 mi South 3.5 mph - N/A   Clear
3:56 PM 87.8 °F - 23.0 °F 9% 30.36 in 10.0 mi WSW 8.1 mph - N/A   Scattered Clouds
4:17 PM 87.8 °F - 24.8 °F 10% 30.36 in 10.0 mi West 5.8 mph - N/A   Scattered Clouds
4:36 PM 77.0 °F - 30.2 °F 18% 30.38 in 10.0 mi NE 11.5 mph 26.5 mph N/A   Mostly Cloudy
4:57 PM 78.8 °F - 30.2 °F 17% 30.39 in 10.0 mi North 11.5 mph 20.7 mph N/A Rain Light Rain
5:17 PM 77.0 °F - 30.2 °F 18% 30.40 in 10.0 mi North 10.4 mph - N/A   Clear
5:37 PM 78.8 °F - 30.2 °F 17% 30.39 in 10.0 mi NNE 6.9 mph - N/A   Clear
5:57 PM 78.8 °F - 30.2 °F 17% 30.38 in 10.0 mi NNE 8.1 mph - N/A   Clear
6:17 PM 78.8 °F - 28.4 °F 16% 30.38 in 10.0 mi ENE 6.9 mph - N/A   Clear
6:37 PM 77.0 °F - 30.2 °F 18% 30.38 in 10.0 mi Calm Calm - N/A   Clear
6:57 PM 78.8 °F - 30.2 °F 17% 30.38 in 10.0 mi ESE 4.6 mph - N/A   Clear
7:17 PM 77.0 °F - 32.0 °F 19% 30.38 in 10.0 mi ESE 5.8 mph - N/A   Clear
7:37 PM 77.0 °F - 30.2 °F 18% 30.38 in 10.0 mi ESE 6.9 mph - N/A   Clear
7:57 PM 73.4 °F - 33.8 °F 23% 30.38 in 10.0 mi ESE 3.5 mph - N/A   Clear
8:17 PM 71.6 °F - 33.8 °F 25% 30.38 in 10.0 mi ESE 3.5 mph - N/A   Clear
8:37 PM 69.8 °F - 35.6 °F 28% 30.38 in 10.0 mi WNW 3.5 mph - N/A   Clear
8:57 PM 66.2 °F - 37.4 °F 35% 30.39 in 10.0 mi Calm Calm - N/A   Clear
9:17 PM 66.2 °F - 37.4 °F 35% 30.39 in 10.0 mi Calm Calm - N/A   Clear
9:37 PM 59.0 °F - 41.0 °F 51% 30.40 in 10.0 mi Calm Calm - N/A   Clear
9:57 PM 59.0 °F - 41.0 °F 51% 30.40 in 10.0 mi Calm Calm - N/A   Clear
10:17 PM 59.0 °F - 37.4 °F 45% 30.41 in 10.0 mi Calm Calm - N/A   Clear
10:37 PM 59.0 °F - 37.4 °F 45% 30.41 in 10.0 mi Calm Calm - N/A   Clear
10:57 PM 55.4 °F - 39.2 °F 54% 30.41 in 10.0 mi East 3.5 mph - N/A   Clear
11:17 PM 55.4 °F - 41.0 °F 58% 30.41 in 10.0 mi Calm Calm - N/A   Clear
11:37 PM 55.4 °F - 41.0 °F 58% 30.41 in 10.0 mi Calm Calm - N/A   Clear
11:57 PM 53.6 °F - 41.0 °F 62% 30.41 in 10.0 mi Calm Calm - N/A   Clear